Location: Ottawa
(45.4167°N, 75.7000°W)
Time: 20:43:29
(UTC-04:00)

Envisat - Pass Details

Date: 07 October 2017
Orbit: 764 x 766 km, 98.2° (Epoch: 22 October)

Event Time Altitude Azimuth Distance (km) Brightness Sun altitude
Exits shadow 19:38:10 17° 101° (E) 1,844 4.3 -12.5°
Maximum altitude 19:40:34 24° 63° (ENE) 1,535 4.1 -13.0°
Drops below altitude 10° 19:44:37 10° 11° (N) 2,313 5.4 -13.7°
Sets 19:47:17 0° 358° (N) 3,243 6.4 -14.1°
